Year,Month,Day,Hour,Minute,Value (Times are PST for temperature in C)
2012,07,11,00,00,15.60
2012,07,11,00,01,15.60
2012,07,11,00,02,15.60
2012,07,11,00,03,15.60
2012,07,11,00,04,15.60
2012,07,11,00,05,15.60
2012,07,11,00,06,15.50
2012,07,11,00,07,15.50
2012,07,11,00,08,15.50
2012,07,11,00,09,15.40
2012,07,11,00,10,15.40
2012,07,11,00,11,15.40
2012,07,11,00,12,15.30
2012,07,11,00,13,15.30
2012,07,11,00,14,15.30
2012,07,11,00,15,15.20
2012,07,11,00,16,15.20
2012,07,11,00,17,15.20
2012,07,11,00,18,15.20
2012,07,11,00,19,15.20
2012,07,11,00,20,15.20
2012,07,11,00,21,15.10
2012,07,11,00,22,15.10
2012,07,11,00,23,15.10
2012,07,11,00,24,15.10
2012,07,11,00,25,15.10
2012,07,11,00,26,15.00
2012,07,11,00,27,15.00
2012,07,11,00,28,15.00
2012,07,11,00,29,14.90
2012,07,11,00,30,14.90
2012,07,11,00,31,14.90
2012,07,11,00,32,14.90
2012,07,11,00,33,14.90
2012,07,11,00,34,14.90
2012,07,11,00,35,14.80
2012,07,11,00,36,14.80
2012,07,11,00,37,14.80
2012,07,11,00,38,14.80
2012,07,11,00,39,14.80
2012,07,11,00,40,14.70
2012,07,11,00,41,14.70
2012,07,11,00,42,14.70
2012,07,11,00,43,14.70
2012,07,11,00,44,14.70
2012,07,11,00,45,14.70
2012,07,11,00,46,14.60
2012,07,11,00,47,14.60
2012,07,11,00,48,14.60
2012,07,11,00,49,14.60
2012,07,11,00,50,14.60
2012,07,11,00,51,14.60
2012,07,11,00,52,14.60
2012,07,11,00,53,14.50
2012,07,11,00,54,14.50
2012,07,11,00,55,14.50
2012,07,11,00,56,14.40
2012,07,11,00,57,14.40
2012,07,11,00,58,14.40
2012,07,11,00,59,14.40
2012,07,11,01,00,14.40
2012,07,11,01,01,14.40
2012,07,11,01,02,14.40
2012,07,11,01,03,14.30
2012,07,11,01,04,14.30
2012,07,11,01,05,14.30
2012,07,11,01,06,14.30
2012,07,11,01,07,14.30
2012,07,11,01,08,14.30
2012,07,11,01,09,14.20
2012,07,11,01,10,14.20
2012,07,11,01,11,14.20
2012,07,11,01,12,14.20
2012,07,11,01,13,14.20
2012,07,11,01,14,14.10
2012,07,11,01,15,14.10
2012,07,11,01,16,14.10
2012,07,11,01,17,14.00
2012,07,11,01,18,14.00
2012,07,11,01,19,14.00
2012,07,11,01,20,13.90
2012,07,11,01,21,13.90
2012,07,11,01,22,13.90
2012,07,11,01,23,13.90
2012,07,11,01,24,13.80
2012,07,11,01,25,13.80
2012,07,11,01,26,13.80
2012,07,11,01,27,13.80
2012,07,11,01,28,13.70
2012,07,11,01,29,13.70
2012,07,11,01,30,13.70
2012,07,11,01,31,13.70
2012,07,11,01,32,13.70
2012,07,11,01,33,13.70
2012,07,11,01,34,13.60
2012,07,11,01,35,13.60
2012,07,11,01,36,13.60
2012,07,11,01,37,13.60
2012,07,11,01,38,13.60
2012,07,11,01,39,13.60
2012,07,11,01,40,13.60
2012,07,11,01,41,13.50
2012,07,11,01,42,13.50
2012,07,11,01,43,13.50
2012,07,11,01,44,13.50
2012,07,11,01,45,13.50
2012,07,11,01,46,13.40
2012,07,11,01,47,13.40
2012,07,11,01,48,13.40
2012,07,11,01,49,13.40
2012,07,11,01,50,13.40
2012,07,11,01,51,13.40
2012,07,11,01,52,13.40
2012,07,11,01,53,13.40
2012,07,11,01,54,13.30
2012,07,11,01,55,13.30
2012,07,11,01,56,13.30
2012,07,11,01,57,13.30
2012,07,11,01,58,13.30
2012,07,11,01,59,13.30
2012,07,11,02,00,13.30
2012,07,11,02,01,13.30
2012,07,11,02,02,13.30
2012,07,11,02,03,13.30
2012,07,11,02,04,13.20
2012,07,11,02,05,13.20
2012,07,11,02,06,13.20
2012,07,11,02,07,13.20
2012,07,11,02,08,13.20
2012,07,11,02,09,13.20
2012,07,11,02,10,13.20
2012,07,11,02,11,13.20
2012,07,11,02,12,13.20
2012,07,11,02,13,13.10
2012,07,11,02,14,13.10
2012,07,11,02,15,13.10
2012,07,11,02,16,13.10
2012,07,11,02,17,13.10
2012,07,11,02,18,13.10
2012,07,11,02,19,13.10
2012,07,11,02,20,13.00
2012,07,11,02,21,13.00
2012,07,11,02,22,13.00
2012,07,11,02,23,13.00
2012,07,11,02,24,13.00
2012,07,11,02,25,12.90
2012,07,11,02,26,12.90
2012,07,11,02,27,12.90
2012,07,11,02,28,12.90
2012,07,11,02,29,12.90
2012,07,11,02,30,12.90
2012,07,11,02,31,12.90
2012,07,11,02,32,12.90
2012,07,11,02,33,12.80
2012,07,11,02,34,12.80
2012,07,11,02,35,12.80
2012,07,11,02,36,12.80
2012,07,11,02,37,12.80
2012,07,11,02,38,12.80
2012,07,11,02,39,12.80
2012,07,11,02,40,12.80
2012,07,11,02,41,12.70
2012,07,11,02,42,12.70
2012,07,11,02,43,12.70
2012,07,11,02,44,12.70
2012,07,11,02,45,12.70
2012,07,11,02,46,12.70
2012,07,11,02,47,12.70
2012,07,11,02,48,12.60
2012,07,11,02,49,12.60
2012,07,11,02,50,12.60
2012,07,11,02,51,12.60
2012,07,11,02,52,12.60
2012,07,11,02,53,12.60
2012,07,11,02,54,12.60
2012,07,11,02,55,12.60
2012,07,11,02,56,12.50
2012,07,11,02,57,12.50
2012,07,11,02,58,12.50
2012,07,11,02,59,12.50
2012,07,11,03,00,12.50
2012,07,11,03,01,12.40
2012,07,11,03,02,12.40
2012,07,11,03,03,12.40
2012,07,11,03,04,12.40
2012,07,11,03,05,12.40
2012,07,11,03,06,12.40
2012,07,11,03,07,12.40
2012,07,11,03,08,12.40
2012,07,11,03,09,12.40
2012,07,11,03,10,12.40
2012,07,11,03,11,12.30
2012,07,11,03,12,12.30
2012,07,11,03,13,12.30
2012,07,11,03,14,12.30
2012,07,11,03,15,12.30
2012,07,11,03,16,12.30
2012,07,11,03,17,12.30
2012,07,11,03,18,12.30
2012,07,11,03,19,12.30
2012,07,11,03,20,12.30
2012,07,11,03,21,12.20
2012,07,11,03,22,12.20
2012,07,11,03,23,12.20
2012,07,11,03,24,12.20
2012,07,11,03,25,12.20
2012,07,11,03,26,12.20
2012,07,11,03,27,12.20
2012,07,11,03,28,12.20
2012,07,11,03,29,12.20
2012,07,11,03,30,12.20
2012,07,11,03,31,12.20
2012,07,11,03,32,12.20
2012,07,11,03,33,12.20
2012,07,11,03,34,12.10
2012,07,11,03,35,12.10
2012,07,11,03,36,12.10
2012,07,11,03,37,12.10
2012,07,11,03,38,12.10
2012,07,11,03,39,12.10
2012,07,11,03,40,12.10
2012,07,11,03,41,12.10
2012,07,11,03,42,12.10
2012,07,11,03,43,12.00
2012,07,11,03,44,12.00
2012,07,11,03,45,12.00
2012,07,11,03,46,12.00
2012,07,11,03,47,12.00
2012,07,11,03,48,12.00
2012,07,11,03,49,11.90
2012,07,11,03,50,11.90
2012,07,11,03,51,11.90
2012,07,11,03,52,11.90
2012,07,11,03,53,11.90
2012,07,11,03,54,11.90
2012,07,11,03,55,11.90
2012,07,11,03,56,11.90
2012,07,11,03,57,11.90
2012,07,11,03,58,11.80
2012,07,11,03,59,11.80
2012,07,11,04,00,11.80
2012,07,11,04,01,11.80
2012,07,11,04,02,11.80
2012,07,11,04,03,11.80
2012,07,11,04,04,11.80
2012,07,11,04,05,11.80
2012,07,11,04,06,11.80
2012,07,11,04,07,11.80
2012,07,11,04,08,11.70
2012,07,11,04,09,11.70
2012,07,11,04,10,11.70
2012,07,11,04,11,11.70
2012,07,11,04,12,11.70
2012,07,11,04,13,11.70
2012,07,11,04,14,11.70
2012,07,11,04,15,11.70
2012,07,11,04,16,11.70
2012,07,11,04,17,11.70
2012,07,11,04,18,11.70
2012,07,11,04,19,11.70
2012,07,11,04,20,11.60
2012,07,11,04,21,11.60
2012,07,11,04,22,11.60
2012,07,11,04,23,11.60
2012,07,11,04,24,11.60
2012,07,11,04,25,11.60
2012,07,11,04,26,11.60
2012,07,11,04,27,11.60
2012,07,11,04,28,11.60
2012,07,11,04,29,11.60
2012,07,11,04,30,11.60
2012,07,11,04,31,11.50
2012,07,11,04,32,11.50
2012,07,11,04,33,11.50
2012,07,11,04,34,11.50
2012,07,11,04,35,11.50
2012,07,11,04,36,11.50
2012,07,11,04,37,11.50
2012,07,11,04,38,11.50
2012,07,11,04,39,11.50
2012,07,11,04,40,11.40
2012,07,11,04,41,11.40
2012,07,11,04,42,11.40
2012,07,11,04,43,11.40
2012,07,11,04,44,11.40
2012,07,11,04,45,11.40
2012,07,11,04,46,11.40
2012,07,11,04,47,11.40
2012,07,11,04,48,11.40
2012,07,11,04,49,11.30
2012,07,11,04,50,11.30
2012,07,11,04,51,11.30
2012,07,11,04,52,11.30
2012,07,11,04,53,11.30
2012,07,11,04,54,11.30
2012,07,11,04,55,11.30
2012,07,11,04,56,11.30
2012,07,11,04,57,11.30
2012,07,11,04,58,11.30
2012,07,11,04,59,11.30
2012,07,11,05,00,11.30
2012,07,11,05,01,11.30
2012,07,11,05,02,11.30
2012,07,11,05,03,11.30
2012,07,11,05,04,11.30
2012,07,11,05,05,11.20
2012,07,11,05,06,11.20
2012,07,11,05,07,11.20
2012,07,11,05,08,11.20
2012,07,11,05,09,11.20
2012,07,11,05,10,11.20
2012,07,11,05,11,11.20
2012,07,11,05,12,11.20
2012,07,11,05,13,11.20
2012,07,11,05,14,11.20
2012,07,11,05,15,11.20
2012,07,11,05,16,11.20
2012,07,11,05,17,11.10
2012,07,11,05,18,11.10
2012,07,11,05,19,11.10
2012,07,11,05,20,11.10
2012,07,11,05,21,11.10
2012,07,11,05,22,11.10
2012,07,11,05,23,11.10
2012,07,11,05,24,11.10
2012,07,11,05,25,11.10
2012,07,11,05,26,11.10
2012,07,11,05,27,11.10
2012,07,11,05,28,11.10
2012,07,11,05,29,11.10
2012,07,11,05,30,11.10
2012,07,11,05,31,11.00
2012,07,11,05,32,11.00
2012,07,11,05,33,11.00
2012,07,11,05,34,11.00
2012,07,11,05,35,11.00
2012,07,11,05,36,11.00
2012,07,11,05,37,11.00
2012,07,11,05,38,11.00
2012,07,11,05,39,11.00
2012,07,11,05,40,11.00
2012,07,11,05,41,11.00
2012,07,11,05,42,10.90
2012,07,11,05,43,10.90
2012,07,11,05,44,10.90
2012,07,11,05,45,10.90
2012,07,11,05,46,10.90
2012,07,11,05,47,10.90
2012,07,11,05,48,10.90
2012,07,11,05,49,10.90
2012,07,11,05,50,10.90
2012,07,11,05,51,10.90
2012,07,11,05,52,10.90
2012,07,11,05,53,10.90
2012,07,11,05,54,10.90
2012,07,11,05,55,10.90
2012,07,11,05,56,10.90
2012,07,11,05,57,10.90
2012,07,11,05,58,10.90
2012,07,11,05,59,10.90
2012,07,11,06,00,10.90
2012,07,11,06,01,10.90
2012,07,11,06,02,10.80
2012,07,11,06,03,10.80
2012,07,11,06,04,10.80
2012,07,11,06,05,10.80
2012,07,11,06,06,10.80
2012,07,11,06,07,10.80
2012,07,11,06,08,10.80
2012,07,11,06,09,10.80
2012,07,11,06,10,10.80
2012,07,11,06,11,10.90
2012,07,11,06,12,10.90
2012,07,11,06,13,10.80
2012,07,11,06,14,10.90
2012,07,11,06,15,10.90
2012,07,11,06,16,10.90
2012,07,11,06,17,10.90
2012,07,11,06,18,10.90
2012,07,11,06,19,10.90
2012,07,11,06,20,10.90
2012,07,11,06,21,10.80
2012,07,11,06,22,10.80
2012,07,11,06,23,10.80
2012,07,11,06,24,10.80
2012,07,11,06,25,10.80
2012,07,11,06,26,10.90
2012,07,11,06,27,10.90
2012,07,11,06,28,10.90
2012,07,11,06,29,10.90
2012,07,11,06,30,10.90
2012,07,11,06,31,10.90
2012,07,11,06,32,10.90
2012,07,11,06,33,10.90
2012,07,11,06,34,10.90
2012,07,11,06,35,10.90
2012,07,11,06,36,10.90
2012,07,11,06,37,10.90
2012,07,11,06,38,10.90
2012,07,11,06,39,10.90
2012,07,11,06,40,11.00
2012,07,11,06,41,11.00
2012,07,11,06,42,11.00
2012,07,11,06,43,11.00
2012,07,11,06,44,11.00
2012,07,11,06,45,11.10
2012,07,11,06,46,11.10
2012,07,11,06,47,11.10
2012,07,11,06,48,11.20
2012,07,11,06,49,11.20
2012,07,11,06,50,11.20
2012,07,11,06,51,11.30
2012,07,11,06,52,11.30
2012,07,11,06,53,11.30
2012,07,11,06,54,11.30
2012,07,11,06,55,11.40
2012,07,11,06,56,11.40
2012,07,11,06,57,11.50
2012,07,11,06,58,11.60
2012,07,11,06,59,11.60
2012,07,11,07,00,11.60
2012,07,11,07,01,11.70
2012,07,11,07,02,11.70
2012,07,11,07,03,11.70
2012,07,11,07,04,11.80
2012,07,11,07,05,11.80
2012,07,11,07,06,11.80
2012,07,11,07,07,11.90
2012,07,11,07,08,11.90
2012,07,11,07,09,11.90
2012,07,11,07,10,11.90
2012,07,11,07,11,12.00
2012,07,11,07,12,12.00
2012,07,11,07,13,12.10
2012,07,11,07,14,12.10
2012,07,11,07,15,12.10
2012,07,11,07,16,12.20
2012,07,11,07,17,12.20
2012,07,11,07,18,12.30
2012,07,11,07,19,12.30
2012,07,11,07,20,12.40
2012,07,11,07,21,12.50
2012,07,11,07,22,12.50
2012,07,11,07,23,12.60
2012,07,11,07,24,12.70
2012,07,11,07,25,12.80
2012,07,11,07,26,12.80
2012,07,11,07,27,12.90
2012,07,11,07,28,13.00
2012,07,11,07,29,13.10
2012,07,11,07,30,13.20
2012,07,11,07,31,13.30
2012,07,11,07,32,13.40
2012,07,11,07,33,13.50
2012,07,11,07,34,13.50
2012,07,11,07,35,13.60
2012,07,11,07,36,13.70
2012,07,11,07,37,13.70
2012,07,11,07,38,13.80
2012,07,11,07,39,13.90
2012,07,11,07,40,13.90
2012,07,11,07,41,14.00
2012,07,11,07,42,14.00
2012,07,11,07,43,14.10
2012,07,11,07,44,14.20
2012,07,11,07,45,14.20
2012,07,11,07,46,14.20
2012,07,11,07,47,14.30
2012,07,11,07,48,14.30
2012,07,11,07,49,14.40
2012,07,11,07,50,14.40
2012,07,11,07,51,14.50
2012,07,11,07,52,14.50
2012,07,11,07,53,14.60
2012,07,11,07,54,14.60
2012,07,11,07,55,14.70
2012,07,11,07,56,14.70
2012,07,11,07,57,14.70
2012,07,11,07,58,14.80
2012,07,11,07,59,14.80
2012,07,11,08,00,14.80
2012,07,11,08,01,14.90
2012,07,11,08,02,15.00
2012,07,11,08,03,15.10
2012,07,11,08,04,15.10
2012,07,11,08,05,15.20
2012,07,11,08,06,15.30
2012,07,11,08,07,15.30
2012,07,11,08,08,15.30
2012,07,11,08,09,15.40
2012,07,11,08,10,15.50
2012,07,11,08,11,15.50
2012,07,11,08,12,15.60
2012,07,11,08,13,15.60
2012,07,11,08,14,15.70
2012,07,11,08,15,15.70
2012,07,11,08,16,15.80
2012,07,11,08,17,15.80
2012,07,11,08,18,15.80
2012,07,11,08,19,15.80
2012,07,11,08,20,15.90
2012,07,11,08,21,15.90
2012,07,11,08,22,15.90
2012,07,11,08,23,15.90
2012,07,11,08,24,15.90
2012,07,11,08,25,15.90
2012,07,11,08,26,15.90
2012,07,11,08,27,16.00
2012,07,11,08,28,16.10
2012,07,11,08,29,16.10
2012,07,11,08,30,16.20
2012,07,11,08,31,16.30
2012,07,11,08,32,16.30
2012,07,11,08,33,16.30
2012,07,11,08,34,16.40
2012,07,11,08,35,16.40
2012,07,11,08,36,16.50
2012,07,11,08,37,16.50
2012,07,11,08,38,16.60
2012,07,11,08,39,16.70
2012,07,11,08,40,16.80
2012,07,11,08,41,16.80
2012,07,11,08,42,16.90
2012,07,11,08,43,17.00
2012,07,11,08,44,17.10
2012,07,11,08,45,17.20
2012,07,11,08,46,17.20
2012,07,11,08,47,17.10
2012,07,11,08,48,17.10
2012,07,11,08,49,17.00
2012,07,11,08,50,17.00
2012,07,11,08,51,16.90
2012,07,11,08,52,16.90
2012,07,11,08,53,16.80
2012,07,11,08,54,16.70
2012,07,11,08,55,16.70
2012,07,11,08,56,16.60
2012,07,11,08,57,16.60
2012,07,11,08,58,16.60
2012,07,11,08,59,16.60
2012,07,11,09,00,16.60
2012,07,11,09,01,16.50
2012,07,11,09,02,16.60
2012,07,11,09,03,16.60
2012,07,11,09,04,16.60
2012,07,11,09,05,16.60
2012,07,11,09,06,16.60
2012,07,11,09,07,16.60
2012,07,11,09,08,16.60
2012,07,11,09,09,16.70
2012,07,11,09,10,16.70
2012,07,11,09,11,16.70
2012,07,11,09,12,16.70
2012,07,11,09,13,16.70
2012,07,11,09,14,16.70
2012,07,11,09,15,16.80
2012,07,11,09,16,16.80
2012,07,11,09,17,16.80
2012,07,11,09,18,16.90
2012,07,11,09,19,16.90
2012,07,11,09,20,17.00
2012,07,11,09,21,17.00
2012,07,11,09,22,17.10
2012,07,11,09,23,17.10
2012,07,11,09,24,17.10
2012,07,11,09,25,17.20
2012,07,11,09,26,17.20
2012,07,11,09,27,17.30
2012,07,11,09,28,17.30
2012,07,11,09,29,17.30
2012,07,11,09,30,17.40
2012,07,11,09,31,17.40
2012,07,11,09,32,17.40
2012,07,11,09,33,17.40
2012,07,11,09,34,17.40
2012,07,11,09,35,17.50
2012,07,11,09,36,17.50
2012,07,11,09,37,17.60
2012,07,11,09,38,17.60
2012,07,11,09,39,17.70
2012,07,11,09,40,17.70
2012,07,11,09,41,17.70
2012,07,11,09,42,17.80
2012,07,11,09,43,17.80
2012,07,11,09,44,17.80
2012,07,11,09,45,17.90
2012,07,11,09,46,17.90
2012,07,11,09,47,18.00
2012,07,11,09,48,18.10
2012,07,11,09,49,18.20
2012,07,11,09,50,18.30
2012,07,11,09,51,18.40
2012,07,11,09,52,18.50
2012,07,11,09,53,18.60
2012,07,11,09,54,18.80
2012,07,11,09,55,19.00
2012,07,11,09,56,19.10
2012,07,11,09,57,19.20
2012,07,11,09,58,19.30
2012,07,11,09,59,19.40
2012,07,11,10,00,19.60
2012,07,11,10,01,19.60
2012,07,11,10,02,19.70
2012,07,11,10,03,19.80
2012,07,11,10,04,19.90
2012,07,11,10,05,19.90
2012,07,11,10,06,20.00
2012,07,11,10,07,20.00
2012,07,11,10,08,20.00
2012,07,11,10,09,19.90
2012,07,11,10,10,19.80
2012,07,11,10,11,19.80
2012,07,11,10,12,19.80
2012,07,11,10,13,19.80
2012,07,11,10,14,19.90
2012,07,11,10,15,19.90
2012,07,11,10,16,19.90
2012,07,11,10,17,19.90
2012,07,11,10,18,19.90
2012,07,11,10,19,19.90
2012,07,11,10,20,19.90
2012,07,11,10,21,20.00
2012,07,11,10,22,20.10
2012,07,11,10,23,20.20
2012,07,11,10,24,20.30
2012,07,11,10,25,20.30
2012,07,11,10,26,20.30
2012,07,11,10,27,20.20
2012,07,11,10,28,20.20
2012,07,11,10,29,20.10
2012,07,11,10,30,20.10
2012,07,11,10,31,20.10
2012,07,11,10,32,20.10
2012,07,11,10,33,20.10
2012,07,11,10,34,20.10
2012,07,11,10,35,20.10
2012,07,11,10,36,20.20
2012,07,11,10,37,20.20
2012,07,11,10,38,20.20
2012,07,11,10,39,20.20
2012,07,11,10,40,20.20
2012,07,11,10,41,20.20
2012,07,11,10,42,20.30
2012,07,11,10,43,20.30
2012,07,11,10,44,20.30
2012,07,11,10,45,20.40
2012,07,11,10,46,20.40
2012,07,11,10,47,20.40
2012,07,11,10,48,20.40
2012,07,11,10,49,20.40
2012,07,11,10,50,20.50
2012,07,11,10,51,20.60
2012,07,11,10,52,20.70
2012,07,11,10,53,20.80
2012,07,11,10,54,20.80
2012,07,11,10,55,20.80
2012,07,11,10,56,20.80
2012,07,11,10,57,20.70
2012,07,11,10,58,20.70
2012,07,11,10,59,20.70
2012,07,11,11,00,20.70
2012,07,11,11,01,20.70
2012,07,11,11,02,20.80
2012,07,11,11,03,20.80
2012,07,11,11,04,20.90
2012,07,11,11,05,20.90
2012,07,11,11,06,21.00
2012,07,11,11,07,21.10
2012,07,11,11,08,21.10
2012,07,11,11,09,21.10
2012,07,11,11,10,21.20
2012,07,11,11,11,21.30
2012,07,11,11,12,21.40
2012,07,11,11,13,21.40
2012,07,11,11,14,21.40
2012,07,11,11,15,21.40
2012,07,11,11,16,21.40
2012,07,11,11,17,21.40
2012,07,11,11,18,21.50
2012,07,11,11,19,21.50
2012,07,11,11,20,21.60
2012,07,11,11,21,21.60
2012,07,11,11,22,21.70
2012,07,11,11,23,21.70
2012,07,11,11,24,21.80
2012,07,11,11,25,21.80
2012,07,11,11,26,21.80
2012,07,11,11,27,21.90
2012,07,11,11,28,21.90
2012,07,11,11,29,22.00
2012,07,11,11,30,22.10
2012,07,11,11,31,22.20
2012,07,11,11,32,22.30
2012,07,11,11,33,22.40
2012,07,11,11,34,22.50
2012,07,11,11,35,22.60
2012,07,11,11,36,22.60
2012,07,11,11,37,22.60
2012,07,11,11,38,22.70
2012,07,11,11,39,22.70
2012,07,11,11,40,22.80
2012,07,11,11,41,23.00
2012,07,11,11,42,23.10
2012,07,11,11,43,23.10
2012,07,11,11,44,23.20
2012,07,11,11,45,23.30
2012,07,11,11,46,23.40
2012,07,11,11,47,23.40
2012,07,11,11,48,23.50
2012,07,11,11,49,23.60
2012,07,11,11,50,23.70
2012,07,11,11,51,23.80
2012,07,11,11,52,23.90
2012,07,11,11,53,23.90
2012,07,11,11,54,24.00
2012,07,11,11,55,24.00
2012,07,11,11,56,24.10
2012,07,11,11,57,24.20
2012,07,11,11,58,24.30
2012,07,11,11,59,24.40
2012,07,11,12,00,24.50
2012,07,11,12,01,24.60
2012,07,11,12,02,24.60
2012,07,11,12,03,24.50
2012,07,11,12,04,24.50
2012,07,11,12,05,24.50
2012,07,11,12,06,24.40
2012,07,11,12,07,24.40
2012,07,11,12,08,24.40
2012,07,11,12,09,24.30
2012,07,11,12,10,24.30
2012,07,11,12,11,24.30
2012,07,11,12,12,24.30
2012,07,11,12,13,24.30
2012,07,11,12,14,24.40
2012,07,11,12,15,24.50
2012,07,11,12,16,24.60
2012,07,11,12,17,24.70
2012,07,11,12,18,24.80
2012,07,11,12,19,24.80
2012,07,11,12,20,24.90
2012,07,11,12,21,24.90
2012,07,11,12,22,24.90
2012,07,11,12,23,25.00
2012,07,11,12,24,25.00
2012,07,11,12,25,25.00
2012,07,11,12,26,25.10
2012,07,11,12,27,25.20
2012,07,11,12,28,25.20
2012,07,11,12,29,25.30
2012,07,11,12,30,25.40
2012,07,11,12,31,25.40
2012,07,11,12,32,25.50
2012,07,11,12,33,25.60
2012,07,11,12,34,25.60
2012,07,11,12,35,25.70
2012,07,11,12,36,25.80
2012,07,11,12,37,25.80
2012,07,11,12,38,25.90
2012,07,11,12,39,25.90
2012,07,11,12,40,25.90
2012,07,11,12,41,25.90
2012,07,11,12,42,26.00
2012,07,11,12,43,26.10
2012,07,11,12,44,26.10
2012,07,11,12,45,26.20
2012,07,11,12,46,26.30
2012,07,11,12,47,26.30
2012,07,11,12,48,26.40
2012,07,11,12,49,26.40
2012,07,11,12,50,26.50
2012,07,11,12,51,26.50
2012,07,11,12,52,26.50
2012,07,11,12,53,26.50
2012,07,11,12,54,26.40
2012,07,11,12,55,26.30
2012,07,11,12,56,26.30
2012,07,11,12,57,26.10
2012,07,11,12,58,26.00
2012,07,11,12,59,25.90
2012,07,11,13,00,25.90
2012,07,11,13,01,26.00
2012,07,11,13,02,26.00
2012,07,11,13,03,26.10
2012,07,11,13,04,26.20
2012,07,11,13,05,26.20
2012,07,11,13,06,26.30
2012,07,11,13,07,26.30
2012,07,11,13,08,26.30
2012,07,11,13,09,26.30
2012,07,11,13,10,26.30
2012,07,11,13,11,26.30
2012,07,11,13,12,26.40
2012,07,11,13,13,26.40
2012,07,11,13,14,26.50
2012,07,11,13,15,26.60
2012,07,11,13,16,26.70
2012,07,11,13,17,26.80
2012,07,11,13,18,26.80
2012,07,11,13,19,26.80
2012,07,11,13,20,26.80
2012,07,11,13,21,26.80
2012,07,11,13,22,26.80
2012,07,11,13,23,26.90
2012,07,11,13,24,27.00
2012,07,11,13,25,27.10
2012,07,11,13,26,27.20
2012,07,11,13,27,27.30
2012,07,11,13,28,27.40
2012,07,11,13,29,27.50
2012,07,11,13,30,27.60
2012,07,11,13,31,27.50
2012,07,11,13,32,27.40
2012,07,11,13,33,27.30
2012,07,11,13,34,27.20
2012,07,11,13,35,27.10
2012,07,11,13,36,27.00
2012,07,11,13,37,27.00
2012,07,11,13,38,27.00
2012,07,11,13,39,27.00
2012,07,11,13,40,27.00
2012,07,11,13,41,27.10
2012,07,11,13,42,27.10
2012,07,11,13,43,27.10
2012,07,11,13,44,27.10
2012,07,11,13,45,27.10
2012,07,11,13,46,27.10
2012,07,11,13,47,27.20
2012,07,11,13,48,27.30
2012,07,11,13,49,27.40
2012,07,11,13,50,27.50
2012,07,11,13,51,27.60
2012,07,11,13,52,27.80
2012,07,11,13,53,27.90
2012,07,11,13,54,27.90
2012,07,11,13,55,28.00
2012,07,11,13,56,27.90
2012,07,11,13,57,27.80
2012,07,11,13,58,27.80
2012,07,11,13,59,27.80
2012,07,11,14,00,27.80
2012,07,11,14,01,27.80
2012,07,11,14,02,27.80
2012,07,11,14,03,27.80
2012,07,11,14,04,27.90
2012,07,11,14,05,27.90
2012,07,11,14,06,27.90
2012,07,11,14,07,27.90
2012,07,11,14,08,27.90
2012,07,11,14,09,27.90
2012,07,11,14,10,27.90
2012,07,11,14,11,27.90
2012,07,11,14,12,27.90
2012,07,11,14,13,28.00
2012,07,11,14,14,28.10
2012,07,11,14,15,28.10
2012,07,11,14,16,28.10
2012,07,11,14,17,28.10
2012,07,11,14,18,28.10
2012,07,11,14,19,28.00
2012,07,11,14,20,28.00
2012,07,11,14,21,27.90
2012,07,11,14,22,27.90
2012,07,11,14,23,27.90
2012,07,11,14,24,27.90
2012,07,11,14,25,27.90
2012,07,11,14,26,27.90
2012,07,11,14,27,28.00
2012,07,11,14,28,28.10
2012,07,11,14,29,28.20
2012,07,11,14,30,28.30
2012,07,11,14,31,28.30
2012,07,11,14,32,28.40
2012,07,11,14,33,28.40
2012,07,11,14,34,28.40
2012,07,11,14,35,28.40
2012,07,11,14,36,28.40
2012,07,11,14,37,28.40
2012,07,11,14,38,28.40
2012,07,11,14,39,28.40
2012,07,11,14,40,28.40
2012,07,11,14,41,28.40
2012,07,11,14,42,28.40
2012,07,11,14,43,28.40
2012,07,11,14,44,28.40
2012,07,11,14,45,28.50
2012,07,11,14,46,28.60
2012,07,11,14,47,28.70
2012,07,11,14,48,28.70
2012,07,11,14,49,28.70
2012,07,11,14,50,28.60
2012,07,11,14,51,28.70
2012,07,11,14,52,28.70
2012,07,11,14,53,28.60
2012,07,11,14,54,28.70
2012,07,11,14,55,28.70
2012,07,11,14,56,28.70
2012,07,11,14,57,28.70
2012,07,11,14,58,28.60
2012,07,11,14,59,28.50
2012,07,11,15,00,28.50
2012,07,11,15,01,28.50
2012,07,11,15,02,28.60
2012,07,11,15,03,28.70
2012,07,11,15,04,28.70
2012,07,11,15,05,28.70
2012,07,11,15,06,28.70
2012,07,11,15,07,28.70
2012,07,11,15,08,28.70
2012,07,11,15,09,28.70
2012,07,11,15,10,28.70
2012,07,11,15,11,28.70
2012,07,11,15,12,28.70
2012,07,11,15,13,28.70
2012,07,11,15,14,28.70
2012,07,11,15,15,28.70
2012,07,11,15,16,28.60
2012,07,11,15,17,28.60
2012,07,11,15,18,28.60
2012,07,11,15,19,28.50
2012,07,11,15,20,28.60
2012,07,11,15,21,28.60
2012,07,11,15,22,28.60
2012,07,11,15,23,28.60
2012,07,11,15,24,28.60
2012,07,11,15,25,28.60
2012,07,11,15,26,28.70
2012,07,11,15,27,28.70
2012,07,11,15,28,28.70
2012,07,11,15,29,28.70
2012,07,11,15,30,28.70
2012,07,11,15,31,28.70
2012,07,11,15,32,28.80
2012,07,11,15,33,28.80
2012,07,11,15,34,28.80
2012,07,11,15,35,28.80
2012,07,11,15,36,28.80
2012,07,11,15,37,28.80
2012,07,11,15,38,28.80
2012,07,11,15,39,28.80
2012,07,11,15,40,28.80
2012,07,11,15,41,28.80
2012,07,11,15,42,28.80
2012,07,11,15,43,28.70
2012,07,11,15,44,28.70
2012,07,11,15,45,28.70
2012,07,11,15,46,28.70
2012,07,11,15,47,28.70
2012,07,11,15,48,28.70
2012,07,11,15,49,28.70
2012,07,11,15,50,28.70
2012,07,11,15,51,28.70
2012,07,11,15,52,28.70
2012,07,11,15,53,28.70
2012,07,11,15,54,28.70
2012,07,11,15,55,28.70
2012,07,11,15,56,28.70
2012,07,11,15,57,28.70
2012,07,11,15,58,28.60
2012,07,11,15,59,28.70
2012,07,11,16,00,28.60
2012,07,11,16,01,28.60
2012,07,11,16,02,28.60
2012,07,11,16,03,28.60
2012,07,11,16,04,28.60
2012,07,11,16,05,28.60
2012,07,11,16,06,28.60
2012,07,11,16,07,28.60
2012,07,11,16,08,28.60
2012,07,11,16,09,28.70
2012,07,11,16,10,28.70
2012,07,11,16,11,28.60
2012,07,11,16,12,28.60
2012,07,11,16,13,28.60
2012,07,11,16,14,28.60
2012,07,11,16,15,28.60
2012,07,11,16,16,28.60
2012,07,11,16,17,28.60
2012,07,11,16,18,28.60
2012,07,11,16,19,28.60
2012,07,11,16,20,28.50
2012,07,11,16,21,28.50
2012,07,11,16,22,28.50
2012,07,11,16,23,28.40
2012,07,11,16,24,28.40
2012,07,11,16,25,28.30
2012,07,11,16,26,28.30
2012,07,11,16,27,28.30
2012,07,11,16,28,28.30
2012,07,11,16,29,28.30
2012,07,11,16,30,28.30
2012,07,11,16,31,28.30
2012,07,11,16,32,28.30
2012,07,11,16,33,28.30
2012,07,11,16,34,28.30
2012,07,11,16,35,28.30
2012,07,11,16,36,28.30
2012,07,11,16,37,28.30
2012,07,11,16,38,28.30
2012,07,11,16,39,28.20
2012,07,11,16,40,28.20
2012,07,11,16,41,28.20
2012,07,11,16,42,28.20
2012,07,11,16,43,28.30
2012,07,11,16,44,28.30
2012,07,11,16,45,28.30
2012,07,11,16,46,28.30
2012,07,11,16,47,28.40
2012,07,11,16,48,28.40
2012,07,11,16,49,28.30
2012,07,11,16,50,28.30
2012,07,11,16,51,28.20
2012,07,11,16,52,28.20
2012,07,11,16,53,28.10
2012,07,11,16,54,28.10
2012,07,11,16,55,28.10
2012,07,11,16,56,28.10
2012,07,11,16,57,28.10
2012,07,11,16,58,28.10
2012,07,11,16,59,28.10
2012,07,11,17,00,28.10
2012,07,11,17,01,28.10
2012,07,11,17,02,28.10
2012,07,11,17,03,28.10
2012,07,11,17,04,28.00
2012,07,11,17,05,28.00
2012,07,11,17,06,27.90
2012,07,11,17,07,27.80
2012,07,11,17,08,27.80
2012,07,11,17,09,27.80
2012,07,11,17,10,27.80
2012,07,11,17,11,27.80
2012,07,11,17,12,27.80
2012,07,11,17,13,27.80
2012,07,11,17,14,27.80
2012,07,11,17,15,27.70
2012,07,11,17,16,27.70
2012,07,11,17,17,27.70
2012,07,11,17,18,27.70
2012,07,11,17,19,27.70